Leadville, CO

11:59 PM MST on February 24, 2017 (GMT -0700)
Lake County

Weather History for KLXV - March, 2012

Change the Weather History Date:

Monday, March 26, 2012

  Actual Average Record
Temperature  
Mean Temperature 39 °F -  
Max Temperature 50 °F 39 °F 53 °F (2004)
Min Temperature 28 °F 13 °F -4 °F (2016)
Degree Days  
Heating Degree Days 26 39  
Month to date heating degree days 1001 1081  
Since 1 July heating degree days 8507 8791  
Cooling Degree Days 0 0  
Month to date cooling degree days 0 0  
Year to date cooling degree days 0 0  
Moisture  
Dew Point 7 °F    
Average Humidity 28    
Maximum Humidity 42    
Minimum Humidity 13    
Precipitation  
Precipitation 0.00 in 0.03 in 0.34 in (2005)
Month to date precipitation 0.22 0.77  
Year to date precipitation 2.40 2.09  
Snow  
Snow 0.00 in - - ()
Month to date snowfall 0.0  
Snow Depth 0.00 in    
Sea Level Pressure  
Sea Level Pressure 29.59 in    
Wind  
Wind Speed 17 mph (SW)    
Max Wind Speed 45 mph    
Max Gust Speed 58 mph    
Visibility 10 miles    
Events      
T = Trace of Precipitation, MM = Missing Value Source: NWS Daily Summary

Daily Weather History Graph

Daily Weather History Graph

Search for Another Location

Airport or City:

Trip Planner

Search our weather history database for the weather conditions in past years. The results will help you decide how hot, cold, wet, or windy it might be!

Date:

Astronomy

Mar. 26, 2012 Rise Set
Actual Time 6:58 AM MDT 7:23 PM MDT
Civil Twilight 6:31 AM MDT 7:50 PM MDT
Nautical Twilight 6:00 AM MDT 8:22 PM MDT
Astronomical Twilight 5:27 AM MDT 8:54 PM MDT
Moon 8:51 AM MDT (3/26) 11:34 PM MDT (3/26)
Length of Visible Light 13h 19m
Length of Day
12h 25m
Waxing Crescent, 15% of the Moon is Illuminated
Mar 26
Waxing Crescent
Mar 30
First Quarter
Apr 6
Full
Apr 13
Last Quarter
Apr 21
New

Hourly Weather History & Observations

Time (MDT) Temp. Windchill Dew Point Humidity Pressure Visibility Wind Dir Wind Speed Gust Speed Precip Events Conditions
12:53 AM 44.1 °F 39.0 °F 17.1 °F 34% 29.65 in 10.0 mi South 9.2 mph - N/A   Clear
1:53 AM 45.0 °F 39.7 °F 15.1 °F 30% 29.61 in 10.0 mi South 10.4 mph 24.2 mph N/A   Clear
2:53 AM 44.1 °F 38.6 °F 14.0 °F 30% 29.61 in 10.0 mi South 10.4 mph 19.6 mph N/A   Clear
3:53 AM 42.1 °F 36.1 °F 12.9 °F 31% 29.59 in 10.0 mi South 10.4 mph - N/A   Clear
4:53 AM 42.1 °F 34.9 °F 10.9 °F 28% 29.58 in 10.0 mi South 13.8 mph 24.2 mph N/A   Clear
5:53 AM 42.1 °F 31.9 °F 9.0 °F 26% 29.58 in 10.0 mi SSW 26.5 mph 38.0 mph N/A   Clear
6:53 AM 41.0 °F 31.6 °F 10.0 °F 28% 29.61 in 10.0 mi South 20.7 mph 33.4 mph N/A   Clear
7:53 AM 42.1 °F 33.3 °F 9.0 °F 26% 29.64 in 10.0 mi SSW 19.6 mph 28.8 mph N/A   Clear
8:53 AM 42.1 °F 32.6 °F 6.1 °F 23% 29.63 in 10.0 mi South 23.0 mph 29.9 mph N/A   Clear
9:53 AM 44.1 °F 35.9 °F 8.1 °F 23% 29.59 in 10.0 mi SW 19.6 mph 26.5 mph N/A   Clear
10:53 AM 46.9 °F - 3.9 °F 17% 29.59 in 10.0 mi SW 21.9 mph 33.4 mph N/A   Clear
11:53 AM 48.0 °F - 3.0 °F 16% 29.47 in 10.0 mi SSW 31.1 mph 41.4 mph N/A   Clear
12:53 PM 50.0 °F - 1.9 °F 14% 29.46 in 10.0 mi WSW 29.9 mph 40.3 mph N/A   Clear
1:53 PM 48.0 °F - 5.0 °F 17% 29.43 in 10.0 mi SW 29.9 mph 44.9 mph N/A   Partly Cloudy
2:53 PM 48.9 °F - 6.1 °F 18% 29.39 in 10.0 mi SW 36.8 mph 48.3 mph N/A   Clear
3:53 PM 46.9 °F - 5.0 °F 18% 29.45 in 10.0 mi West 20.7 mph 38.0 mph N/A   Clear
4:53 PM 46.0 °F 39.9 °F 1.9 °F 16% 29.51 in 10.0 mi West 13.8 mph 27.6 mph N/A   Clear
5:53 PM 43.0 °F 33.5 °F -0.0 °F 17% 29.55 in 10.0 mi West 24.2 mph 35.7 mph N/A   Clear
6:53 PM 39.9 °F 30.5 °F 1.0 °F 20% 29.61 in 10.0 mi WSW 19.6 mph 31.1 mph N/A   Clear
7:53 PM 36.0 °F 33.3 °F 1.9 °F 24% 29.66 in 10.0 mi West 3.5 mph - N/A   Clear
8:53 PM 33.1 °F 28.7 °F 6.1 °F 32% 29.71 in 10.0 mi WNW 4.6 mph - N/A   Clear
9:53 PM 32.0 °F - 6.1 °F 34% 29.74 in 10.0 mi Calm Calm - N/A   Clear
10:53 PM 28.0 °F 20.8 °F 9.0 °F 45% 29.75 in 10.0 mi ESE 6.9 mph - N/A   Clear
11:53 PM 32.0 °F - 7.0 °F 35% 29.72 in 10.0 mi Calm Calm - N/A   Clear